Back to catalog

COSMOS 2251 DEB

AliveLEO
NORAD 35033·DEBRIS·🇷🇺 Russia

Launched Jun 16, 1993 from Plesetsk Cosmodrome

Loading…

Next Passes (next 24 hours)

TLE

FreshSource: Space-Track

Epoch: Sep 13, 2026, 02:01 UTC

1 35033U 93036AGW 26256.08415273  .00001368  00000-0  34411-3 0  9990
2 35033  74.0275  19.7355 0013529  57.0348 303.2112 14.52137763699081

Track COSMOS 2251 DEB in real time with AllMySat

Download on the App Store